Location: Stilling
(56.0622°N, 9.9882°E)
Time: 23:59:06
(UTC+00:00)

Helios 1B rocket - Pass Details

Date: 13 July 2020
Orbit: 574 x 584 km, 98.1° (Epoch: 03 August)

Event Time Altitude Azimuth Distance (km) Brightness Sun altitude
Rises 22:48:15 0° 26° (NNE) 2,814 6.9 -11.9°
Reaches altitude 10° 22:51:06 10° 48° (NE) 1,906 5.5 -11.9°
Maximum altitude 22:53:47 17° 89° (E) 1,511 4.5 -12.0°
Drops below altitude 10° 22:56:28 10° 130° (SE) 1,891 4.6 -12.0°
Enters shadow 22:56:31 10° 130° (SE) 1,906 4.6 -12.0°
